TimeEEST,TemperatureF,Dew PointF,Humidity,Sea Level PressureIn,VisibilityMPH,Wind Direction,Wind SpeedMPH,Gust SpeedMPH,PrecipitationIn,Events,Conditions,WindDirDegrees,DateUTC
12:20 AM,68.0,53.6,60,29.83,-9999.0,West,4.6,-,N/A,,Clear,260,2013-06-01 21:20:00
12:50 AM,69.8,48.2,46,29.83,-9999.0,West,4.6,-,N/A,,Clear,270,2013-06-01 21:50:00
1:20 AM,69.8,46.4,43,29.80,-9999.0,West,4.6,-,N/A,,Clear,260,2013-06-01 22:20:00
1:50 AM,68.0,46.4,46,29.80,-9999.0,Variable,2.3,-,N/A,,Clear,0,2013-06-01 22:50:00
2:20 AM,68.0,48.2,49,29.80,6.2,Variable,2.3,-,N/A,,Scattered Clouds,0,2013-06-01 23:20:00
2:50 AM,68.0,48.2,49,29.77,6.2,Variable,1.2,-,N/A,,Scattered Clouds,0,2013-06-01 23:50:00
3:00 AM,68,47,36,29.79,6,NE,1.2,,,,Scattered Clouds,50,2013-06-02 00:00:00
3:20 AM,66.2,50.0,56,29.77,6.2,East,3.5,-,N/A,,Scattered Clouds,90,2013-06-02 00:20:00
3:50 AM,64.4,51.8,64,29.77,6.2,Calm,Calm,-,N/A,,Scattered Clouds,0,2013-06-02 00:50:00
4:20 AM,62.6,50.0,63,29.77,6.2,NNW,2.3,-,N/A,,Scattered Clouds,330,2013-06-02 01:20:00
4:50 AM,64.4,53.6,68,29.77,6.2,Variable,2.3,-,N/A,,Scattered Clouds,0,2013-06-02 01:50:00
5:20 AM,64.4,53.6,68,29.77,6.2,Variable,1.2,-,N/A,,Scattered Clouds,0,2013-06-02 02:20:00
5:50 AM,64.4,53.6,68,29.80,6.2,Calm,Calm,-,N/A,,Scattered Clouds,0,2013-06-02 02:50:00
6:20 AM,66.2,55.4,68,29.80,6.2,South,4.6,-,N/A,,Scattered Clouds,180,2013-06-02 03:20:00
6:37 AM,66.2,57.2,73,29.80,6.2,South,5.8,-,N/A,Rain,Light Rain Showers,170,2013-06-02 03:37:00
6:50 AM,66.2,53.6,64,29.80,6.2,South,8.1,-,N/A,Rain,Light Rain Showers,190,2013-06-02 03:50:00
7:20 AM,64.4,53.6,68,29.77,6.2,SSW,9.2,-,N/A,Rain,Light Rain Showers,200,2013-06-02 04:20:00
7:50 AM,66.2,53.6,64,29.77,6.2,WSW,5.8,-,N/A,Rain,Light Rain Showers,240,2013-06-02 04:50:00
8:20 AM,66.2,53.6,64,29.77,6.2,WSW,3.5,-,N/A,Rain,Light Rain Showers,250,2013-06-02 05:20:00
8:50 AM,66.2,53.6,64,29.77,6.2,Variable,1.2,-,N/A,Rain,Light Rain Showers,0,2013-06-02 05:50:00
9:00 AM,66,54,55,29.77,6,WNW,1.2,,,Rain,Light Rain Showers,290,2013-06-02 06:00:00
9:20 AM,69.8,53.6,56,29.71,6.2,Variable,4.6,-,N/A,,Mostly Cloudy,0,2013-06-02 06:20:00
9:50 AM,68.0,51.8,56,29.74,6.2,ENE,4.6,-,N/A,Rain,Light Rain Showers,70,2013-06-02 06:50:00
10:20 AM,66.2,57.2,73,29.74,3.7,SSE,8.1,-,N/A,Rain,Light Rain Showers,160,2013-06-02 07:20:00
10:50 AM,66.2,57.2,73,29.74,4.3,ESE,5.8,-,N/A,Rain,Light Rain Showers,120,2013-06-02 07:50:00
11:20 AM,64.4,55.4,73,29.71,6.2,ENE,4.6,-,N/A,Rain,Light Rain Showers,70,2013-06-02 08:20:00
11:50 AM,66.2,55.4,68,29.71,6.2,East,6.9,-,N/A,Rain,Light Rain Showers,90,2013-06-02 08:50:00
12:20 PM,66.2,55.4,68,29.68,4.3,ENE,5.8,-,N/A,Rain,Light Rain Showers,70,2013-06-02 09:20:00
12:50 PM,69.8,53.6,56,29.68,6.2,ENE,8.1,-,N/A,,Mostly Cloudy,70,2013-06-02 09:50:00
1:20 PM,69.8,55.4,60,29.68,6.2,NE,5.8,-,N/A,,Mostly Cloudy,40,2013-06-02 10:20:00
1:50 PM,71.6,55.4,57,29.62,6.2,Variable,6.9,-,N/A,,Mostly Cloudy,0,2013-06-02 10:50:00
2:20 PM,73.4,55.4,53,29.62,6.2,Variable,4.6,-,N/A,,Mostly Cloudy,0,2013-06-02 11:20:00
2:50 PM,73.4,53.6,50,29.65,6.2,Variable,2.3,-,N/A,,Mostly Cloudy,0,2013-06-02 11:50:00
3:00 PM,73,54,40,29.65,6,ESE,2.3,,,,Partly Cloudy,120,2013-06-02 12:00:00
3:20 PM,71.6,57.2,60,29.62,6.2,SW,6.9,-,N/A,,Mostly Cloudy,230,2013-06-02 12:20:00
3:50 PM,73.4,59.0,61,29.65,6.2,WNW,13.8,-,N/A,,Scattered Clouds,300,2013-06-02 12:50:00
4:20 PM,71.6,57.2,60,29.65,6.2,NW,12.7,-,N/A,,Scattered Clouds,310,2013-06-02 13:20:00
4:50 PM,69.8,55.4,60,29.65,6.2,NW,12.7,-,N/A,,Scattered Clouds,310,2013-06-02 13:50:00
5:20 PM,69.8,55.4,60,29.65,6.2,WNW,10.4,-,N/A,,Mostly Cloudy,300,2013-06-02 14:20:00
5:50 PM,69.8,55.4,60,29.65,6.2,NW,9.2,-,N/A,,Mostly Cloudy,310,2013-06-02 14:50:00
6:20 PM,68.0,57.2,68,29.65,6.2,West,8.1,-,N/A,,Mostly Cloudy,260,2013-06-02 15:20:00
6:50 PM,68.0,55.4,64,29.68,6.2,WSW,10.4,-,N/A,,Mostly Cloudy,240,2013-06-02 15:50:00
7:20 PM,66.2,57.2,73,29.68,6.2,WSW,13.8,-,N/A,,Mostly Cloudy,250,2013-06-02 16:20:00
7:50 PM,66.2,57.2,73,29.68,6.2,WSW,9.2,-,N/A,,Mostly Cloudy,250,2013-06-02 16:50:00
8:20 PM,66.2,55.4,68,29.68,6.2,WNW,10.4,-,N/A,,Mostly Cloudy,300,2013-06-02 17:20:00
8:50 PM,66.2,55.4,68,29.71,6.2,WNW,3.5,-,N/A,,Mostly Cloudy,290,2013-06-02 17:50:00
9:00 PM,66,55,60,29.71,6,WNW,3.5,,,,Mostly Cloudy,290,2013-06-02 18:00:00
9:20 PM,66.2,55.4,68,29.71,6.2,West,4.6,-,N/A,,Mostly Cloudy,280,2013-06-02 18:20:00
9:50 PM,66.2,55.4,68,29.71,6.2,WNW,4.6,-,N/A,,Mostly Cloudy,300,2013-06-02 18:50:00
10:20 PM,64.4,53.6,68,29.74,6.2,West,5.8,-,N/A,,Mostly Cloudy,260,2013-06-02 19:20:00
10:50 PM,64.4,53.6,68,29.74,6.2,WSW,6.9,-,N/A,,Mostly Cloudy,250,2013-06-02 19:50:00
11:02 PM,64.4,53.6,68,29.74,6.2,West,8.1,-,N/A,Rain-Thunderstorm,Light Thunderstorms and Rain,260,2013-06-02 20:02:00
11:20 PM,60.8,55.4,82,29.74,6.2,WNW,9.2,-,N/A,Rain-Thunderstorm,Light Thunderstorms and Rain,300,2013-06-02 20:20:00
11:50 PM,62.6,57.2,82,29.74,6.2,WSW,6.9,-,N/A,Rain,Light Rain Showers,250,2013-06-02 20:50:00